Flag for Canada Weather past 2 weeks in Cranbrook, British Columbia, Canada

Now
28 °F

Light snow. More clouds than sun.


Feels Like: 28 °F
Forecast: 30 / 38 °F
Wind: No wind

Location: Cranbrook

Current Time: Dec 18, 2014 at 2:18:22 PM

Latest Report: Dec 18, 2014 at 1:00 PM


Visibility: 15 mi

Pressure: 30.06 "Hg

Humidity: 80%

Dew point: 23 °F

Location of CranbrookLocation

Historic Weather in Cranbrook — Graph

°F

Cranbrook temperature yesterday

Maximum temperature yesterday: 27 °F (at 2:00 PM)
Minimum temperature yesterday: 21 °F (at 12:08 AM)
Average temperature yesterday: 25 °F

Past Weeks' High & Low Weather Summary

 TemperatureHumidityPressure
High45 °F (Dec 12, 2:00 PM)100% (Dec 7, 11:00 PM)30.46 "Hg (Dec 7, 11:00 PM)
Low-4 °F (Dec 4, 12:00 AM)64% (Dec 14, 4:00 PM)29.59 "Hg (Dec 11, 9:00 PM)
Average27 °F86%30.13 "Hg
* Reported Dec 3 1:00 PM — Dec 18 1:00 PM, Cranbrook, Weather by CustomWeather, © 2014

Note: Actual official high and low records may vary slightly from our data, if they occured in-between our weather recording intervals... More about our weather records

Advertising

Cranbrook weather history for previous 24 hours

 ConditionsComfort  
Time TempWeatherWind HumidityBarometerVisibility
1:00 PM
Dec 18
28 °FLight snow. More clouds than sun.No wind80%30.06 "Hg15 mi
12:00 PM28 °FLight snow. More clouds than sun.No wind80%30.07 "Hg10 mi
11:00 AM27 °FLight snow. Mostly cloudy.No wind86%30.09 "Hg15 mi
10:49 AM27 °FLight snow. Mostly cloudy.No wind86%30.09 "Hg15 mi
10:00 AM27 °FMore clouds than sun.No wind86%30.08 "Hg20 mi
9:00 AM27 °FPassing clouds.2 mph80%30.08 "Hg20 mi
8:00 AM27 °FOvercast.2 mph80%30.07 "Hg20 mi
7:00 AM27 °FOvercast.No wind80%30.07 "Hg15 mi
6:00 AM27 °FLight snow. Overcast.No wind80%30.07 "Hg12 mi
5:00 AM25 °FLight snow. Overcast.2 mph86%30.08 "Hg10 mi
4:00 AM27 °FLight snow. Overcast.2 mph80%30.07 "Hg12 mi
3:00 AM25 °FLight snow. Fog.2 mph86%30.07 "Hg12 mi
2:00 AM25 °FLight snow. Mostly cloudy.No wind86%30.07 "Hg15 mi
1:00 AM27 °FLight snow. Mostly cloudy.No wind74%30.08 "Hg10 mi
12:00 AM27 °FLight snow. Overcast.No wind74%30.09 "Hg12 mi
11:00 PM
Dec 17
27 °FLight snow. Overcast.No wind74%30.10 "Hg15 mi
10:00 PM27 °FOvercast.2 mph74%30.10 "Hg20 mi
9:00 PM27 °FMostly cloudy.2 mph74%30.10 "Hg25 mi
8:00 PM27 °FMostly cloudy.3 mph74%30.09 "Hg25 mi
7:00 PM27 °FPassing clouds.No wind74%30.09 "Hg25 mi
6:00 PM27 °FPartly cloudy.No wind74%30.08 "Hg25 mi
5:00 PM27 °FPartly cloudy.No wind74%30.08 "Hg25 mi
4:00 PM27 °FOvercast.3 mph69%30.08 "Hg25 mi
3:00 PM27 °FPartly sunny.3 mph74%30.08 "Hg25 mi
2:00 PM27 °FLight snow. Mostly cloudy.2 mph74%30.08 "Hg20 mi
Weather by CustomWeather, © 2014

See weather overviewHow to use our weather pages